Laredo, TX

8:56 AM CDT on August 27, 2016 (GMT -0500)
Laredo International

Weather History for KLRD - July, 2014

Change the Weather History Date:

Monday, July 21, 2014

  Actual Average Record
Temperature  
Mean Temperature 94 °F 88 °F  
Max Temperature 107 °F 100 °F 110 °F (1998)
Min Temperature 80 °F 77 °F 61 °F (1940)
Degree Days  
Heating Degree Days 0 0  
Month to date heating degree days 0 0  
Since 1 June heating degree days 0 0  
Since 1 July heating degree days 0 0  
Cooling Degree Days 29 23  
Month to date cooling degree days 494 483  
Year to date cooling degree days 2355 2286  
Since 1 June cooling degree days 1230 1143  
Growing Degree Days 42 (Base 50)    
Moisture  
Dew Point 71 °F    
Average Humidity 55    
Maximum Humidity 85    
Minimum Humidity 24    
Precipitation  
Precipitation 0.00 in 0.05 in 0.91 in (1992)
Month to date precipitation 0.93 1.55  
Year to date precipitation 6.51 10.65  
Sea Level Pressure  
Sea Level Pressure 29.91 in    
Wind  
Wind Speed 11 mph (SE)    
Max Wind Speed 22 mph    
Max Gust Speed 28 mph    
Visibility 10 miles    
Events      
T = Trace of Precipitation, MM = Missing Value Source: NWS Daily Summary

Daily Weather History Graph

Daily Weather History Graph

Search for Another Location

Airport or City:

Trip Planner

Search our weather history database for the weather conditions in past years. The results will help you decide how hot, cold, wet, or windy it might be!

Date:

Astronomy

Jul. 21, 2014 Rise Set
Actual Time 6:55 AM CDT 8:32 PM CDT
Civil Twilight 6:29 AM CDT 8:58 PM CDT
Nautical Twilight 5:58 AM CDT 9:29 PM CDT
Astronomical Twilight 5:26 AM CDT 10:01 PM CDT
Moon 2:41 AM CDT (7/21) 4:21 PM CDT (7/21)
Length of Visible Light 14h 29m
Length of Day
13h 37m
Waning Crescent, 24% of the Moon is Illuminated
Jul 21
Waning Crescent
Jul 26
New
Aug 3
First Quarter
Aug 10
Full
Aug 17
Last Quarter

Hourly Weather History & Observations

Time (CDT) Temp. Heat Index Dew Point Humidity Pressure Visibility Wind Dir Wind Speed Gust Speed Precip Events Conditions
12:56 AM 84.9 °F 92.1 °F 73.9 °F 69% 29.91 in 10.0 mi SE 12.7 mph - N/A   Clear
1:56 AM 83.8 °F 89.8 °F 72.9 °F 69% 29.90 in 10.0 mi SE 9.2 mph - N/A   Clear
2:56 AM 82.9 °F 88.5 °F 72.9 °F 71% 29.89 in 10.0 mi SE 11.5 mph - N/A   Clear
3:56 AM 81.9 °F 87.0 °F 72.9 °F 74% 29.89 in 10.0 mi ESE 10.4 mph - N/A   Clear
4:56 AM 81.0 °F 86.2 °F 73.9 °F 79% 29.90 in 10.0 mi ESE 10.4 mph - N/A   Clear
5:56 AM 79.9 °F - 73.9 °F 82% 29.91 in 10.0 mi ESE 9.2 mph - N/A   Clear
6:56 AM 79.9 °F - 74.8 °F 85% 29.93 in 8.0 mi ESE 10.4 mph - N/A   Clear
7:56 AM 81.0 °F 86.7 °F 74.8 °F 82% 29.94 in 8.0 mi SE 8.1 mph - N/A   Partly Cloudy
8:56 AM 83.8 °F 91.4 °F 74.8 °F 74% 29.95 in 10.0 mi SE 11.5 mph - N/A   Clear
9:56 AM 86.0 °F 94.6 °F 74.8 °F 69% 29.96 in 10.0 mi SE 9.2 mph - N/A   Clear
10:41 AM 89.6 °F 99.8 °F 75.2 °F 62% 30.00 in 2.0 mi SE 8.1 mph - N/A   Haze
10:56 AM 88.9 °F 98.6 °F 74.8 °F 63% 29.97 in 10.0 mi SSE 6.9 mph - N/A   Clear
11:56 AM 92.8 °F 102.8 °F 73.9 °F 54% 29.96 in 10.0 mi SE 9.2 mph - N/A   Clear
12:56 PM 95.9 °F 105.2 °F 72.9 °F 47% 29.95 in 10.0 mi ESE 6.9 mph - N/A   Clear
1:56 PM 97.9 °F 104.7 °F 70.0 °F 40% 29.94 in 10.0 mi ESE 9.2 mph - N/A   Clear
2:56 PM 102.9 °F 106.1 °F 63.9 °F 28% 29.90 in 10.0 mi East 9.2 mph 17.3 mph N/A   Clear
3:56 PM 104.9 °F 106.8 °F 61.9 °F 24% 29.87 in 10.0 mi SE 12.7 mph 19.6 mph N/A   Clear
4:56 PM 106.0 °F 108.6 °F 61.9 °F 24% 29.85 in 10.0 mi ESE 13.8 mph 19.6 mph N/A   Clear
5:56 PM 106.0 °F 108.6 °F 61.9 °F 24% 29.84 in 10.0 mi SSE 11.5 mph 18.4 mph N/A   Clear
6:56 PM 104.0 °F 106.0 °F 61.9 °F 25% 29.84 in 10.0 mi SSE 12.7 mph - N/A   Clear
7:56 PM 101.8 °F 103.6 °F 61.9 °F 27% 29.86 in 10.0 mi ESE 17.3 mph - N/A   Clear
8:56 PM 97.9 °F 100.9 °F 64.9 °F 34% 29.88 in 10.0 mi ESE 11.5 mph - N/A   Clear
9:56 PM 92.8 °F 102.8 °F 73.9 °F 54% 29.91 in 10.0 mi East 16.1 mph 23.0 mph N/A   Clear
10:56 PM 90.0 °F 99.0 °F 73.9 °F 59% 29.92 in 10.0 mi ESE 12.7 mph - N/A   Clear
11:56 PM 88.9 °F 93.8 °F 70.0 °F 53% 29.94 in 10.0 mi SE 18.4 mph 27.6 mph N/A   Clear